Dewpoint
52 52 53 54 56 62 67 67 67 66 66 66 66 66 66 65 66 63 67 65 66 68 69 70 70 70 70 69 68 68 68 68 68 68 68 67 67 67 66 66 66 66 66
51 50 51 53 52 53 56 63 64 64 64 66 66 66 65 66 65 66 66 66 64 66 67 69 71 70 70 69 68 68 68 68 68 68 67 67 66 66 65 65 65 65 66
49 49 49 48 48 50 52 55 59 65 64 63 64 63 65 66 64 62 63 63 66 63 64 67 68 69 70 70 69 68 68 68 68 68 67 67 66 66 65 65 65 65 65
47 47 46 46 48 49 50 51 52 53 60 59 59 61 63 63 64 62 62 61 60 66 64 64 66 68 68 69 70 69 68 68 67 67 67 67 66 65 65 65 64 64 65
48 46 45 46 47 46 47 48 48 50 51 57 58 57 60 62 62 61 60 60 61 64 66 64 63 64 66 68 69 70 69 68 68 68 67 67 66 65 65 65 64 64 64
45 44 44 44 45 44 45 46 48 49 50 51 51 54 56 58 60 60 61 59 60 63 64 65 64 63 62 66 68 69 70 70 68 68 67 67 66 66 65 65 64 64 64
42 41 41 41 42 42 43 45 45 46 47 48 49 52 55 57 58 59 59 59 60 61 62 64 65 65 63 63 66 68 70 70 69 68 67 67 66 65 65 64 64 64 64
37 36 37 38 38 39 39 41 44 45 46 48 48 48 49 52 55 55 59 60 62 61 61 63 64 65 64 64 63 66 68 69 69 68 67 66 66 65 65 65 64 64 64
34 35 35 36 36 38 38 38 40 41 43 46 48 49 48 47 49 54 56 57 59 61 62 62 63 64 64 65 63 63 62 64 66 68 67 66 66 65 65 65 64 64 63
33 33 34 35 36 36 37 39 37 40 41 42 45 47 48 49 48 50 55 58 58 58 60 62 62 62 63 64 63 61 58 58 62 66 67 67 66 66 65 65 64 64 63
32 33 34 34 33 34 35 37 37 39 39 40 43 44 46 47 47 51 50 51 56 60 60 62 63 63 64 65 63 62 57 56 59 62 65 66 66 66 65 65 64 64 64
31 32 33 33 33 34 35 35 37 39 40 40 41 42 43 45 46 48 50 51 53 56 60 62 62 63 63 64 64 58 56 55 57 60 62 64 65 65 65 65 64 65 64
31 32 32 33 34 35 36 37 37 37 39 40 41 42 42 43 45 46 47 48 50 52 56 60 62 62 63 64 64 58 56 54 55 57 59 61 63 64 64 64 65 64 64
32 32 33 33 34 35 36 37 38 39 39 40 40 43 43 42 42 44 45 46 46 48 51 54 58 62 62 63 61 57 61 53 53 54 56 58 60 61 61 62 63 63 63
33 34 32 32 33 34 35 37 37 37 38 39 41 42 43 44 43 43 43 46 45 44 45 49 54 57 61 62 62 63 63 57 53 52 53 55 57 57 58 59 60 61 61
33 33 32 32 32 33 33 34 35 35 36 36 38 38 38 41 43 44 46 46 48 46 45 49 53 56 58 59 59 60 61 55 51 52 51 52 52 54 54 55 56 57 58
32 32 31 31 31 32 32 32 32 32 32 33 34 33 33 35 37 39 43 46 49 50 48 50 53 54 53 53 55 60 60 60 58 50 49 49 50 50 52 52 52 53 54
31 32 31 30 29 30 32 30 31 31 30 30 31 30 30 30 32 34 37 39 43 45 49 49 51 51 44 43 46 49 54 51 55 47 47 48 48 47 47 48 48 49 50
27 26 27 28 27 28 29 29 29 29 29 29 29 31 30 29 29 30 31 34 36 42 43 46 43 39 42 39 41 43 45 45 43 43 45 43 43 45 45 43 43 44 47
25 24 24 25 26 25 25 26 26 26 27 27 27 28 30 30 29 29 28 30 32 33 35 35 33 32 33 35 37 36 40 42 36 37 42 42 41 40 40 40 40 40 41
24 24 22 22 24 24 25 23 23 22 22 23 24 25 28 32 33 31 29 28 29 28 28 27 27 27 27 28 30 34 36 39 35 32 36 38 40 39 38 38 38 39 39
23 23 22 21 22 25 24 23 22 21 20 19 20 20 22 25 27 29 31 30 28 26 25 25 24 24 25 27 30 32 33 35 34 32 31 35 36 35 35 36 37 37 37
23 21 20 20 20 23 25 24 23 21 19 19 18 19 19 21 23 24 25 26 26 26 26 25 23 24 24 26 29 29 33 31 28 27 28 33 32 32 33 35 36 36 36
23 21 20 19 19 21 23 24 23 21 19 18 18 18 18 19 21 22 23 23 24 25 25 25 25 25 25 25 26 28 28 32 31 26 26 27 31 30 34 34 34 34 34
24 23 21 19 18 18 20 21 22 20 19 17 17 17 17 17 20 22 19 19 21 22 25 24 23 24 23 24 25 25 23 23 28 24 23 26 28 27 31 32 33 33 32
26 26 24 21 19 18 19 19 20 19 17 17 17 17 19 17 19 19 17 17 17 19 19 20 21 21 23 22 24 23 25 20 21 20 23 23 24 25 24 32 32 33 32
Lifted_Index
9 9 8 6 5 2 -1 -3 -3 -2 -3 -3 -3 -3 -3 -3 -3 -3 -2 -2 -2 -2 -3 -5 -5 -5 -5 -4 -4 -4 -4 -4 -4 -4 -3 -3 -3 -2 -2 -2 -2 -2 -3
10 10 9 8 7 4 2 -0 -1 -2 -2 -2 -2 -2 -2 -2 -2 -2 -2 -2 -1 -2 -3 -4 -5 -6 -5 -5 -4 -4 -4 -4 -4 -4 -3 -3 -2 -2 -2 -1 -1 -2 -2
12 11 11 10 9 8 6 3 2 0 -1 -1 -1 -1 -1 -1 -1 -2 -2 -1 -1 -1 -2 -3 -5 -6 -6 -5 -5 -4 -4 -4 -4 -4 -3 -3 -2 -2 -1 -1 -1 -1 -1
12 12 12 11 11 10 9 7 5 3 1 0 -0 -0 -1 -1 -1 -1 -1 -0 -0 -1 -1 -2 -4 -5 -5 -5 -5 -5 -4 -4 -3 -3 -3 -3 -2 -2 -1 -1 -1 -1 -1
12 12 12 12 12 11 10 9 8 6 4 2 1 0 0 -0 -0 -0 -0 1 0 -1 -2 -3 -3 -3 -4 -5 -5 -5 -5 -4 -4 -3 -3 -3 -2 -2 -1 -1 -1 -0 -0
13 13 13 13 12 12 11 10 9 8 7 4 2 1 1 1 0 1 1 1 1 -1 -2 -3 -3 -3 -3 -4 -5 -5 -5 -5 -4 -4 -3 -3 -2 -2 -1 -1 -1 -0 -0
14 14 14 14 13 13 12 11 10 9 8 6 5 3 2 1 1 1 1 1 0 -1 -2 -3 -3 -3 -3 -3 -4 -5 -5 -5 -5 -4 -4 -3 -2 -2 -1 -1 -1 -1 -0
15 15 15 15 15 14 13 13 12 11 10 8 6 5 3 2 1 1 0 0 -1 -1 -1 -2 -3 -3 -3 -3 -3 -4 -4 -5 -5 -5 -4 -3 -3 -2 -1 -1 -1 -1 -0
16 17 17 17 17 16 15 14 13 12 11 9 8 6 4 3 2 1 0 -0 -1 -1 -1 -2 -3 -3 -3 -3 -3 -3 -3 -4 -4 -4 -4 -4 -3 -2 -2 -1 -1 -1 -0
18 18 18 18 18 17 16 15 14 13 12 11 9 8 6 5 3 2 1 -0 -0 -1 -1 -2 -2 -3 -3 -3 -3 -2 -3 -3 -4 -4 -4 -4 -4 -3 -2 -1 -1 -1 -1
18 18 18 18 18 18 17 16 15 14 13 11 10 9 7 6 4 2 1 1 -0 -1 -2 -2 -2 -3 -3 -3 -3 -3 -3 -3 -3 -4 -4 -4 -4 -3 -3 -2 -1 -1 -1
19 19 19 19 19 19 18 17 16 15 14 12 11 10 8 6 5 3 2 1 1 -0 -1 -2 -2 -3 -3 -3 -3 -3 -3 -3 -3 -3 -4 -4 -4 -4 -3 -2 -2 -1 -1
20 20 20 20 20 19 18 17 16 16 15 14 12 11 9 7 6 4 3 2 1 1 0 -1 -2 -3 -3 -3 -3 -3 -3 -4 -3 -3 -3 -3 -4 -4 -4 -3 -2 -2 -2
20 20 20 20 19 19 18 17 16 15 14 14 13 12 11 9 8 6 4 3 3 2 1 0 -1 -2 -2 -3 -3 -3 -3 -3 -3 -3 -3 -3 -3 -3 -4 -3 -3 -2 -2
20 20 20 20 19 18 17 16 14 13 13 12 12 12 11 11 9 8 7 5 4 3 3 2 1 -0 -1 -2 -2 -2 -2 -2 -2 -2 -3 -3 -3 -3 -3 -3 -3 -2 -2
20 20 20 19 18 17 16 15 14 12 11 11 12 12 11 11 10 9 8 6 5 4 3 2 1 1 0 -0 -1 -1 -1 -2 -2 -2 -2 -2 -3 -2 -2 -2 -2 -2 -2
19 19 19 18 17 17 16 14 13 12 11 10 11 11 11 10 10 9 8 7 5 4 3 2 1 1 2 2 1 0 -0 -1 -1 -1 -1 -1 -1 -1 -0 -0 -0 -0 -1
18 18 18 17 17 16 16 14 13 12 11 11 10 10 10 10 9 8 8 7 6 5 3 3 2 1 2 3 2 1 0 0 0 0 1 1 1 1 2 1 1 1 1
17 17 17 17 16 16 15 15 14 13 12 12 12 11 11 10 9 8 7 7 6 6 5 4 3 2 2 3 3 2 1 1 1 2 2 2 2 2 2 2 2 1 1
17 17 17 17 16 16 16 16 15 14 13 13 13 13 13 12 10 8 7 6 6 6 5 4 4 3 3 3 3 3 2 2 3 3 3 3 3 4 3 3 3 2 1
17 18 18 17 17 18 18 18 17 15 14 14 14 14 14 14 13 11 9 7 6 5 5 4 3 3 3 3 3 3 3 3 4 5 5 5 5 6 6 5 4 3 2
18 18 18 18 18 18 19 19 19 18 17 16 16 16 16 16 15 14 12 11 9 7 6 5 4 4 4 4 4 4 3 3 4 6 6 6 7 7 8 8 7 6 5
18 18 18 18 18 18 19 20 20 19 18 18 18 18 18 17 17 17 16 15 13 12 11 10 8 8 8 8 8 7 6 5 7 8 8 7 7 8 10 11 11 10 8
17 18 18 18 18 19 19 19 19 19 18 18 19 19 19 19 19 19 18 17 16 17 17 16 15 15 15 15 13 12 10 9 9 11 10 9 8 9 11 13 14 13 12
17 18 18 19 19 19 20 20 19 19 18 19 19 20 20 20 20 19 18 17 17 18 19 20 19 19 19 19 18 16 14 12 11 12 13 12 11 12 12 14 16 16 16
17 18 18 19 19 19 20 20 20 19 18 18 20 20 21 20 20 19 18 17 16 17 19 20 20 20 20 20 19 18 16 14 13 14 15 15 14 13 13 14 17 18 18